Maple Lake, MN

2:54 AM CST on November 18, 2017 (GMT -0600)
Maple Lake Municipal

Weather History for KMGG - May, 2014

Change the Weather History Date:

Monday, May 5, 2014

  Actual Average (KSTC) Record (KSTC)
Temperature  
Mean Temperature 56 °F -  
Max Temperature 65 °F 64 °F 91 °F (2000)
Min Temperature 47 °F 39 °F 25 °F (1967)
Degree Days  
Heating Degree Days 9    
Growing Degree Days 6 (Base 50)    
Moisture  
Dew Point 36 °F    
Average Humidity 49    
Maximum Humidity 73    
Minimum Humidity 31    
Precipitation  
Precipitation 0.00 in - - ()
Sea Level Pressure  
Sea Level Pressure 29.97 in    
Wind  
Wind Speed 4 mph (ENE)    
Max Wind Speed 10 mph    
Max Gust Speed -    
Visibility 10 miles    
Events      
Averages and records for this station are not official NWS values.
T = Trace of Precipitation, MM = Missing Value Source: NWS Daily Summary

Daily Weather History Graph

Daily Weather History Graph

Search for Another Location

Airport or City:

Trip Planner

Search our weather history database for the weather conditions in past years. The results will help you decide how hot, cold, wet, or windy it might be!

Date:

Astronomy

May. 05, 2014 Rise Set
Actual Time 5:58 AM CDT 8:27 PM CDT
Civil Twilight 5:25 AM CDT 9:00 PM CDT
Nautical Twilight 4:44 AM CDT 9:41 PM CDT
Astronomical Twilight 3:57 AM CDT 10:29 PM CDT
Moon 11:20 AM CDT (5/5) 1:11 AM CDT (5/5)
Length of Visible Light 15h 34m
Length of Day
14h 28m
Waxing Crescent, 37% of the Moon is Illuminated
May 5
Waxing Crescent
May 6
First Quarter
May 14
Full
May 21
Last Quarter
May 28
New

Hourly Weather History & Observations

Time (CDT) Temp. Dew Point Humidity Pressure Visibility Wind Dir Wind Speed Gust Speed Precip Events Conditions
12:17 AM 50.0 °F 34.3 °F 55% 30.00 in 10.0 mi NNE 4.6 mph - N/A   Overcast
12:37 AM 50.2 °F 33.1 °F 52% 30.00 in 10.0 mi NNE 3.5 mph - N/A   Overcast
1:17 AM 49.5 °F 34.5 °F 56% 30.02 in 10.0 mi North 3.5 mph - N/A   Overcast
1:38 AM 50.0 °F 33.1 °F 52% 30.00 in 10.0 mi NNE 4.6 mph - N/A   Overcast
1:57 AM 50.0 °F 33.4 °F 53% 30.00 in 10.0 mi NE 4.6 mph - N/A   Overcast
2:17 AM 49.8 °F 34.3 °F 55% 30.00 in 10.0 mi Calm Calm - N/A   Overcast
2:37 AM 49.8 °F 33.8 °F 54% 30.00 in 10.0 mi Calm Calm - N/A   Overcast
2:57 AM 49.1 °F 35.6 °F 60% 29.98 in 10.0 mi ESE 3.5 mph - N/A   Overcast
3:18 AM 49.3 °F 33.8 °F 55% 29.97 in 10.0 mi East 5.8 mph - N/A   Overcast
3:37 AM 49.1 °F 33.6 °F 55% 29.97 in 10.0 mi East 5.8 mph - N/A   Overcast
3:57 AM 48.6 °F 33.3 °F 56% 29.99 in 10.0 mi Calm Calm - N/A   Overcast
4:18 AM 48.7 °F 34.5 °F 58% 29.99 in 10.0 mi NNE 3.5 mph - N/A   Overcast
4:37 AM 48.7 °F 34.2 °F 57% 29.98 in 10.0 mi NE 3.5 mph - N/A   Overcast
4:57 AM 48.6 °F 34.7 °F 59% 29.98 in 10.0 mi NNE 3.5 mph - N/A   Overcast
5:18 AM 48.4 °F 34.7 °F 59% 29.99 in 10.0 mi NNE 3.5 mph - N/A   Overcast
5:37 AM 48.4 °F 34.9 °F 60% 29.99 in 10.0 mi NNE 3.5 mph - N/A   Overcast
5:57 AM 48.2 °F 35.2 °F 61% 30.00 in 10.0 mi NNE 4.6 mph - N/A   Overcast
6:18 AM 48.0 °F 35.6 °F 62% 30.00 in 10.0 mi NE 5.8 mph - N/A   Overcast
6:37 AM 47.3 °F 36.1 °F 65% 30.00 in 10.0 mi NE 5.8 mph - N/A   Overcast
6:57 AM 47.5 °F 36.7 °F 66% 30.00 in 10.0 mi ENE 4.6 mph - N/A   Overcast
7:18 AM 48.2 °F 35.6 °F 62% 30.00 in 10.0 mi ENE 8.1 mph - N/A   Overcast
7:37 AM 48.2 °F 35.1 °F 60% 30.00 in 10.0 mi ENE 6.9 mph - N/A   Mostly Cloudy
7:58 AM 49.1 °F 34.7 °F 58% 30.00 in 10.0 mi ENE 10.4 mph - N/A   Mostly Cloudy
8:17 AM 49.3 °F 34.9 °F 58% 30.00 in 10.0 mi NE 9.2 mph - N/A   Scattered Clouds
8:37 AM 50.2 °F 35.4 °F 57% 29.99 in 10.0 mi East 10.4 mph - N/A   Clear
8:58 AM 51.3 °F 34.7 °F 53% 30.00 in 10.0 mi ENE 9.2 mph - N/A   Clear
9:18 AM 51.3 °F 34.3 °F 52% 30.00 in 10.0 mi East 8.1 mph - N/A   Mostly Cloudy
9:37 AM 52.0 °F 34.9 °F 52% 30.01 in 10.0 mi ENE 5.8 mph - N/A   Overcast
9:58 AM 52.9 °F 34.9 °F 50% 30.01 in 10.0 mi East 4.6 mph - N/A   Overcast
10:17 AM 54.1 °F 35.8 °F 50% 30.02 in 10.0 mi NE 5.8 mph - N/A   Overcast
10:38 AM 55.0 °F 36.3 °F 49% 30.01 in 10.0 mi ENE 5.8 mph - N/A   Overcast
10:57 AM 55.9 °F 36.1 °F 47% 30.01 in 10.0 mi ENE 4.6 mph - N/A   Mostly Cloudy
11:18 AM 57.0 °F 36.1 °F 46% 30.01 in 10.0 mi East 4.6 mph - N/A   Mostly Cloudy
11:37 AM 57.6 °F 36.1 °F 45% 30.00 in 10.0 mi East 3.5 mph - N/A   Overcast
11:57 AM 58.8 °F 37.2 °F 45% 30.00 in 10.0 mi East 5.8 mph - N/A   Mostly Cloudy
12:17 PM 59.2 °F 36.9 °F 43% 29.99 in 10.0 mi Calm Calm - N/A   Scattered Clouds
12:37 PM 61.2 °F 37.0 °F 41% 29.99 in 10.0 mi South 4.6 mph - N/A   Clear
1:17 PM 60.8 °F 36.0 °F 40% 29.98 in 10.0 mi ENE 5.8 mph - N/A   Scattered Clouds
1:38 PM 61.5 °F 35.4 °F 38% 29.98 in 10.0 mi NNE 3.5 mph - N/A   Scattered Clouds
1:57 PM 62.2 °F 36.5 °F 38% 29.97 in 10.0 mi Calm Calm - N/A   Clear
2:17 PM 62.2 °F 35.6 °F 37% 29.98 in 10.0 mi SE 4.6 mph - N/A   Scattered Clouds
2:38 PM 63.0 °F 34.7 °F 35% 29.97 in 10.0 mi ESE 3.5 mph - N/A   Mostly Cloudy
2:57 PM 63.9 °F 37.2 °F 37% 29.97 in 10.0 mi Calm Calm - N/A   Mostly Cloudy
3:17 PM 63.3 °F 34.7 °F 34% 29.96 in 10.0 mi ESE 4.6 mph - N/A   Scattered Clouds
3:38 PM 64.2 °F 36.5 °F 36% 29.95 in 10.0 mi South 3.5 mph - N/A   Clear
3:57 PM 64.4 °F 35.2 °F 34% 29.94 in 10.0 mi SE 3.5 mph - N/A   Clear
4:17 PM 64.6 °F 35.6 °F 34% 29.94 in 10.0 mi East 4.6 mph - N/A   Clear
4:57 PM 65.1 °F 34.2 °F 32% 29.93 in 10.0 mi East 3.5 mph - N/A   Clear
5:17 PM 64.8 °F 34.3 °F 32% 29.93 in 10.0 mi ESE 3.5 mph - N/A   Clear
5:38 PM 64.8 °F 33.3 °F 31% 29.93 in 10.0 mi Calm Calm - N/A   Clear
5:58 PM 64.8 °F 34.9 °F 33% 29.92 in 10.0 mi ESE 4.6 mph - N/A   Clear
6:17 PM 64.6 °F 35.2 °F 34% 29.92 in 10.0 mi East 3.5 mph - N/A   Clear
6:37 PM 64.4 °F 35.6 °F 34% 29.92 in 10.0 mi ENE 4.6 mph - N/A   Clear
6:58 PM 63.5 °F 35.4 °F 35% 29.92 in 10.0 mi ESE 4.6 mph - N/A   Clear
7:18 PM 63.1 °F 35.6 °F 36% 29.92 in 10.0 mi ESE 4.6 mph - N/A   Clear
7:37 PM 61.7 °F 36.9 °F 40% 29.92 in 10.0 mi Calm Calm - N/A   Clear
7:57 PM 61.0 °F 36.1 °F 40% 29.93 in 10.0 mi Calm Calm - N/A   Clear
8:18 PM 59.2 °F 38.3 °F 46% 29.92 in 10.0 mi Calm Calm - N/A   Clear
8:37 PM 56.7 °F 40.5 °F 55% 29.93 in 5.0 mi Calm Calm - N/A   Haze
8:57 PM 54.7 °F 41.7 °F 62% 29.93 in 10.0 mi Calm Calm - N/A   Clear
9:18 PM 54.7 °F 38.7 °F 55% 29.94 in 10.0 mi ESE 3.5 mph - N/A   Clear
9:38 PM 55.9 °F 37.8 °F 51% 29.94 in 10.0 mi ESE 3.5 mph - N/A   Clear
10:17 PM 54.1 °F 38.1 °F 55% 29.95 in 10.0 mi East 3.5 mph - N/A   Clear
10:38 PM 53.6 °F 38.8 °F 57% 29.95 in 10.0 mi Calm Calm - N/A   Clear
11:18 PM 51.4 °F 38.3 °F 61% 29.96 in 10.0 mi Calm Calm - N/A   Clear
11:38 PM 49.3 °F 40.8 °F 73% 29.96 in 10.0 mi Calm Calm - N/A   Clear
11:57 PM 48.7 °F 39.0 °F 69% 29.96 in 10.0 mi Calm Calm - N/A   Clear